Henry Post Army Air Field (Fort Sill)
KFSI : now visible

Airfield :











YOU CAN JOIN US ON...

 
LOGIN :

Register | Disclaimer

   EN    FR    IT 

 









Legend :    VFR   Marginal VFR   IFR   Intensive IFR   Very Intensive IFR
Visi :
Ceiling :
>= 8 km
>= 3000ft
5 to 8 km
1000 to 3000 ft
1500m to 5 km
500 to 1000 ft
800 to 1500m
200 to 500 ft
< 800m
< 200 ft
Symbols :   Thunderstorms  Fog  Heavy snow  Heavy precipitations  Wind > 20 kt






- Airport Elevation : 1189 ft


KFSI - Henry Post Army Air Field (Fort Sill)

CURRENT METAR :
  • 221256Z AUTO 00000KT 10SM SCT036 13/09 A3010 RMK AO2 SLP189 T01290088

EXPIRED METARs :
  • 221156Z AUTO 00000KT 10SM OVC039 14/08 A3010 RMK AO2 LTG DSNT S SLP189 T01430076 10145 20119 55003
  • 221056Z AUTO 01005KT 10SM FEW038 13/07 A3010 RMK AO2 SLP188 T01290071

Expired Forecast.
KZFW FIR / North America



MET'MAP, your aeronautical weather chart ! - Copyright ORBIFLY December 2007 - Disclaimer

ORBIFLY MET'MAP TEAM :

Programming & Development : Alexandra Zaïnal
Concept & original design : Baudouin d'Aumeries
Assistance for programming : Marc-Olivier Méhu
Technical & hardware support : Manuel Goepfert

Contact : metmap@orbifly.com




SOURCES & CREDITS :

   NOAA       Earth
Advisory